PIMOHWEATHER Station Historical Data
Daily Summary for February 01, 2020 Units:  Metric    English   Both
Daily Weekly Monthly Yearly
  High: Low: Average:
Temperature: 31.0 °C 22.0 °C 25.7 °C
Dew Point: 22.0 °C 19.0 °C 20.4 °C
Humidity: 87% 57% 73%
Wind Speed: 28km/h 0km/h 7.1km/h
Wind Gust: 32km/h - -
Wind- - SSE
Pressure: 1017.4 hPa 1012.6 hPa -
Precipitation: 0.00 mm    
 
 
Tabular Data for February 01, 2020
Time Temperature Dew Point Pressure Wind Wind Speed Wind Gust Humidity Rainfall Rate (Hourly) solar
00:04 24.0 °C 20.0 °C 1015.4 hPa ESE 3 km/h 4 km/h 77% 0.00 mm 0.00 W/m2
00:09 24.0 °C 20.0 °C 1015.4 hPa ESE 5 km/h 8 km/h 77% 0.00 mm 0.00 W/m2
00:14 24.0 °C 20.0 °C 1015.3 hPa Calm     78% 0.00 mm 0.00 W/m2
00:19 24.0 °C 20.0 °C 1015.3 hPa Calm   4 km/h 78% 0.00 mm 0.00 W/m2
00:24 24.0 °C 20.0 °C 1015.3 hPa SE 3 km/h 4 km/h 78% 0.00 mm 0.00 W/m2
00:29 24.0 °C 20.0 °C 1015.4 hPa Calm     78% 0.00 mm 0.00 W/m2
00:34 24.0 °C 20.0 °C 1015.1 hPa Calm     78% 0.00 mm 0.00 W/m2
00:39 24.0 °C 20.0 °C 1015.1 hPa Calm     78% 0.00 mm 0.00 W/m2
00:44 24.0 °C 20.0 °C 1015.3 hPa Calm     79% 0.00 mm 0.00 W/m2
00:49 24.0 °C 20.0 °C 1015.1 hPa Calm     79% 0.00 mm 0.00 W/m2
00:54 24.0 °C 20.0 °C 1015.1 hPa SSE 1 km/h 4 km/h 78% 0.00 mm 0.00 W/m2
00:59 24.0 °C 20.0 °C 1015.1 hPa Calm     78% 0.00 mm 0.00 W/m2
01:04 24.0 °C 20.0 °C 1015.1 hPa Calm     78% 0.00 mm 0.00 W/m2
01:09 24.0 °C 20.0 °C 1015.1 hPa Calm     78% 0.00 mm 0.00 W/m2
01:14 24.0 °C 20.0 °C 1015.1 hPa ESE 1 km/h 4 km/h 78% 0.00 mm 0.00 W/m2
01:19 24.0 °C 20.0 °C 1014.9 hPa SE 2 km/h 4 km/h 78% 0.00 mm 0.00 W/m2
01:24 24.0 °C 20.0 °C 1014.7 hPa Calm   4 km/h 78% 0.00 mm 0.00 W/m2
01:29 24.0 °C 20.0 °C 1014.7 hPa NNE 4 km/h 4 km/h 78% 0.00 mm 0.00 W/m2
01:34 24.0 °C 20.0 °C 1014.7 hPa NNE 2 km/h 4 km/h 78% 0.00 mm 0.00 W/m2
01:39 24.0 °C 20.0 °C 1014.7 hPa North 5 km/h 8 km/h 79% 0.00 mm 0.00 W/m2
01:44 24.0 °C 20.0 °C 1014.7 hPa NW 3 km/h 4 km/h 80% 0.00 mm 0.00 W/m2
01:49 24.0 °C 20.0 °C 1014.7 hPa North 5 km/h 8 km/h 80% 0.00 mm 0.00 W/m2
01:54 24.0 °C 20.0 °C 1014.7 hPa NNW 5 km/h 8 km/h 80% 0.00 mm 0.00 W/m2
01:59 24.0 °C 20.0 °C 1014.7 hPa NW 5 km/h 8 km/h 80% 0.00 mm 0.00 W/m2
02:04 24.0 °C 20.0 °C 1014.7 hPa NW 4 km/h 8 km/h 80% 0.00 mm 0.00 W/m2
02:09 24.0 °C 20.0 °C 1014.7 hPa NW 5 km/h 8 km/h 80% 0.00 mm 0.00 W/m2
02:14 23.0 °C 20.0 °C 1014.7 hPa NW 5 km/h 8 km/h 80% 0.00 mm 0.00 W/m2
02:19 23.0 °C 20.0 °C 1014.7 hPa NNW 5 km/h 8 km/h 80% 0.00 mm 0.00 W/m2
02:24 23.0 °C 20.0 °C 1014.7 hPa NW 5 km/h 8 km/h 81% 0.00 mm 0.00 W/m2
02:29 23.0 °C 20.0 °C 1014.7 hPa NW 4 km/h 4 km/h 81% 0.00 mm 0.00 W/m2
02:34 23.0 °C 20.0 °C 1014.7 hPa NW 4 km/h 4 km/h 81% 0.00 mm 0.00 W/m2
02:39 23.0 °C 20.0 °C 1014.7 hPa NW 4 km/h 4 km/h 81% 0.00 mm 0.00 W/m2
02:44 23.0 °C 20.0 °C 1014.7 hPa NNW 5 km/h 8 km/h 81% 0.00 mm 0.00 W/m2
02:49 23.0 °C 20.0 °C 1014.6 hPa NW 6 km/h 8 km/h 81% 0.00 mm 0.00 W/m2
02:54 23.0 °C 20.0 °C 1014.6 hPa NW 5 km/h 8 km/h 81% 0.00 mm 0.00 W/m2
02:59 23.0 °C 20.0 °C 1014.4 hPa NW 8 km/h 12 km/h 81% 0.00 mm 0.00 W/m2
03:04 23.0 °C 20.0 °C 1014.7 hPa North 8 km/h 8 km/h 81% 0.00 mm 0.00 W/m2
03:09 23.0 °C 20.0 °C 1014.7 hPa North 6 km/h 12 km/h 81% 0.00 mm 0.00 W/m2
03:14 23.0 °C 20.0 °C 1014.4 hPa North 6 km/h 8 km/h 82% 0.00 mm 0.00 W/m2
03:19 23.0 °C 20.0 °C 1014.6 hPa North 9 km/h 12 km/h 82% 0.00 mm 0.00 W/m2
03:24 23.0 °C 20.0 °C 1014.7 hPa North 9 km/h 12 km/h 82% 0.00 mm 0.00 W/m2
03:29 23.0 °C 20.0 °C 1014.7 hPa North 7 km/h 8 km/h 82% 0.00 mm 0.00 W/m2
03:34 23.0 °C 20.0 °C 1014.7 hPa NNW 7 km/h 8 km/h 82% 0.00 mm 0.00 W/m2
03:39 23.0 °C 20.0 °C 1014.7 hPa North 8 km/h 8 km/h 83% 0.00 mm 0.00 W/m2
03:44 23.0 °C 20.0 °C 1014.7 hPa North 7 km/h 8 km/h 83% 0.00 mm 0.00 W/m2
03:49 23.0 °C 20.0 °C 1014.7 hPa North 9 km/h 12 km/h 83% 0.00 mm 0.00 W/m2
03:54 23.0 °C 20.0 °C 1014.7 hPa North 7 km/h 12 km/h 83% 0.00 mm 0.00 W/m2
03:59 23.0 °C 20.0 °C 1014.7 hPa North 5 km/h 8 km/h 83% 0.00 mm 0.00 W/m2
04:04 23.0 °C 20.0 °C 1014.7 hPa NNE 5 km/h 8 km/h 83% 0.00 mm 0.00 W/m2
04:09 23.0 °C 20.0 °C 1014.7 hPa NNE 6 km/h 8 km/h 84% 0.00 mm 0.00 W/m2
04:14 23.0 °C 20.0 °C 1014.8 hPa North 5 km/h 8 km/h 84% 0.00 mm 0.00 W/m2
04:19 22.0 °C 20.0 °C 1014.8 hPa North 5 km/h 8 km/h 84% 0.00 mm 0.00 W/m2
04:24 22.0 °C 20.0 °C 1014.8 hPa North 8 km/h 8 km/h 85% 0.00 mm 0.00 W/m2
04:29 22.0 °C 20.0 °C 1014.8 hPa NNW 8 km/h 8 km/h 85% 0.00 mm 0.00 W/m2
04:34 22.0 °C 20.0 °C 1015.1 hPa North 9 km/h 12 km/h 85% 0.00 mm 0.00 W/m2
04:39 22.0 °C 20.0 °C 1015.1 hPa North 6 km/h 12 km/h 85% 0.00 mm 0.00 W/m2
04:44 22.0 °C 20.0 °C 1015.1 hPa North 8 km/h 8 km/h 85% 0.00 mm 0.00 W/m2
04:49 22.0 °C 20.0 °C 1015.3 hPa NNW 9 km/h 12 km/h 86% 0.00 mm 0.00 W/m2
04:54 22.0 °C 20.0 °C 1015.4 hPa NNW 8 km/h 12 km/h 86% 0.00 mm 0.00 W/m2
04:59 22.0 °C 20.0 °C 1015.4 hPa NNW 5 km/h 8 km/h 86% 0.00 mm 0.00 W/m2
05:04 22.0 °C 20.0 °C 1015.4 hPa North 8 km/h 12 km/h 86% 0.00 mm 0.00 W/m2
05:09 22.0 °C 20.0 °C 1015.7 hPa NW 8 km/h 12 km/h 86% 0.00 mm 0.00 W/m2
05:14 22.0 °C 20.0 °C 1015.6 hPa NNW 10 km/h 16 km/h 86% 0.00 mm 0.00 W/m2
05:19 22.0 °C 20.0 °C 1015.8 hPa North 10 km/h 16 km/h 86% 0.00 mm 0.00 W/m2
05:24 22.0 °C 20.0 °C 1015.7 hPa NNW 9 km/h 12 km/h 86% 0.00 mm 0.00 W/m2
05:29 22.0 °C 20.0 °C 1015.8 hPa NNW 10 km/h 12 km/h 86% 0.00 mm 0.00 W/m2
05:34 22.0 °C 20.0 °C 1015.8 hPa NNW 9 km/h 12 km/h 87% 0.00 mm 0.00 W/m2
05:39 22.0 °C 20.0 °C 1015.7 hPa NNW 6 km/h 8 km/h 87% 0.00 mm 0.00 W/m2
05:44 22.0 °C 20.0 °C 1015.7 hPa North 8 km/h 8 km/h 87% 0.00 mm 0.00 W/m2
05:49 22.0 °C 20.0 °C 1015.6 hPa North 10 km/h 12 km/h 87% 0.00 mm 0.00 W/m2
05:54 22.0 °C 20.0 °C 1015.8 hPa North 9 km/h 12 km/h 87% 0.00 mm 0.00 W/m2
05:59 22.0 °C 20.0 °C 1015.7 hPa North 9 km/h 12 km/h 87% 0.00 mm 0.00 W/m2
06:04 22.0 °C 20.0 °C 1015.8 hPa NNE 6 km/h 8 km/h 87% 0.00 mm 0.00 W/m2
06:09 22.0 °C 20.0 °C 1016.0 hPa North 10 km/h 12 km/h 87% 0.00 mm 0.00 W/m2
06:14 22.0 °C 20.0 °C 1016.1 hPa North 10 km/h 12 km/h 87% 0.00 mm 0.00 W/m2
06:19 22.0 °C 20.0 °C 1016.0 hPa North 7 km/h 12 km/h 87% 0.00 mm 0.00 W/m2
06:24 22.0 °C 20.0 °C 1016.0 hPa NNE 10 km/h 12 km/h 87% 0.00 mm 0.33 W/m2
06:29 22.0 °C 20.0 °C 1015.9 hPa North 6 km/h 16 km/h 87% 0.00 mm 3.36 W/m2
06:34 22.0 °C 20.0 °C 1015.8 hPa NNE 8 km/h 8 km/h 87% 0.00 mm 7.52 W/m2
06:39 22.0 °C 19.0 °C 1015.9 hPa North 8 km/h 8 km/h 86% 0.00 mm 12.62 W/m2
06:44 22.0 °C 19.0 °C 1016.1 hPa North 8 km/h 8 km/h 86% 0.00 mm 19.93 W/m2
06:49 22.0 °C 20.0 °C 1016.1 hPa NNW 8 km/h 8 km/h 86% 0.00 mm 24.05 W/m2
06:54 22.0 °C 20.0 °C 1016.1 hPa North 5 km/h 8 km/h 86% 0.00 mm 28.87 W/m2
06:59 22.0 °C 20.0 °C 1016.1 hPa North 8 km/h 8 km/h 86% 0.00 mm 35.18 W/m2
07:04 22.0 °C 20.0 °C 1016.1 hPa North 5 km/h 8 km/h 86% 0.00 mm 52.17 W/m2
07:09 22.0 °C 20.0 °C 1016.1 hPa North 7 km/h 8 km/h 85% 0.00 mm 63.74 W/m2
07:14 23.0 °C 20.0 °C 1016.1 hPa NW 6 km/h 8 km/h 85% 0.00 mm 66.66 W/m2
07:19 23.0 °C 20.0 °C 1016.3 hPa NW 10 km/h 12 km/h 84% 0.00 mm 79.59 W/m2
07:24 23.0 °C 20.0 °C 1016.3 hPa NW 9 km/h 12 km/h 83% 0.00 mm 79.47 W/m2
07:29 23.0 °C 20.0 °C 1016.5 hPa NW 6 km/h 8 km/h 83% 0.00 mm 83.01 W/m2
07:34 23.0 °C 20.0 °C 1016.5 hPa North 6 km/h 8 km/h 83% 0.00 mm 83.65 W/m2
07:39 24.0 °C 20.0 °C 1016.7 hPa WNW 7 km/h 12 km/h 82% 0.00 mm 94.78 W/m2
07:44 23.0 °C 20.0 °C 1016.8 hPa NW 6 km/h 8 km/h 82% 0.00 mm 96.67 W/m2
07:49 23.0 °C 20.0 °C 1016.6 hPa WNW 11 km/h 12 km/h 82% 0.00 mm 89.04 W/m2
07:54 23.0 °C 20.0 °C 1016.6 hPa NNW 10 km/h 12 km/h 82% 0.00 mm 82.01 W/m2
07:59 23.0 °C 20.0 °C 1016.8 hPa North 6 km/h 12 km/h 82% 0.00 mm 89.47 W/m2
08:04 23.0 °C 20.0 °C 1016.8 hPa NNW 7 km/h 12 km/h 82% 0.00 mm 105.35 W/m2
08:09 24.0 °C 20.0 °C 1016.8 hPa NW 5 km/h 8 km/h 82% 0.00 mm 105.47 W/m2
08:14 24.0 °C 20.0 °C 1016.8 hPa NNW 8 km/h 8 km/h 81% 0.00 mm 126.52 W/m2
08:19 24.0 °C 20.0 °C 1016.8 hPa NNW 6 km/h 12 km/h 81% 0.00 mm 101.61 W/m2
08:24 25.0 °C 21.0 °C 1017.1 hPa SSW 4 km/h 4 km/h 80% 0.00 mm 172.93 W/m2
08:29 25.0 °C 21.0 °C 1017.1 hPa WNW 8 km/h 8 km/h 79% 0.00 mm 165.95 W/m2
08:34 25.0 °C 21.0 °C 1017.1 hPa North 10 km/h 12 km/h 77% 0.00 mm 166.57 W/m2
08:39 25.0 °C 21.0 °C 1017.1 hPa NW 10 km/h 12 km/h 78% 0.00 mm 170.97 W/m2
08:44 25.0 °C 21.0 °C 1017.1 hPa NNE 11 km/h 16 km/h 78% 0.00 mm 176.87 W/m2
08:49 25.0 °C 21.0 °C 1017.3 hPa North 9 km/h 12 km/h 77% 0.00 mm 227.98 W/m2
08:54 25.0 °C 21.0 °C 1017.3 hPa NNW 10 km/h 12 km/h 77% 0.00 mm 166.18 W/m2
08:59 25.0 °C 20.0 °C 1017.4 hPa NW 10 km/h 12 km/h 77% 0.00 mm 140.29 W/m2
09:04 25.0 °C 21.0 °C 1017.4 hPa NNW 11 km/h 12 km/h 77% 0.00 mm 131.53 W/m2
09:09 25.0 °C 21.0 °C 1017.4 hPa NNW 10 km/h 12 km/h 76% 0.00 mm 163.31 W/m2
09:14 26.0 °C 21.0 °C 1017.2 hPa North 11 km/h 16 km/h 76% 0.00 mm 290.76 W/m2
09:19 26.0 °C 21.0 °C 1017.1 hPa North 12 km/h 16 km/h 74% 0.00 mm 286.88 W/m2
09:24 26.0 °C 21.0 °C 1017.1 hPa NNE 10 km/h 12 km/h 75% 0.00 mm 161.25 W/m2
09:29 26.0 °C 21.0 °C 1017.1 hPa NNE 8 km/h 12 km/h 74% 0.00 mm 146.87 W/m2
09:34 26.0 °C 21.0 °C 1017.1 hPa NW 3 km/h 4 km/h 74% 0.00 mm 199.23 W/m2
09:39 26.0 °C 21.0 °C 1017.1 hPa ENE 5 km/h 8 km/h 73% 0.00 mm 309.09 W/m2
09:44 28.0 °C 21.0 °C 1017.1 hPa ESE 6 km/h 12 km/h 72% 0.00 mm 322.18 W/m2
09:49 28.0 °C 21.0 °C 1017.1 hPa East 8 km/h 12 km/h 68% 0.00 mm 337.57 W/m2
09:54 28.0 °C 21.0 °C 1017.1 hPa NE 10 km/h 12 km/h 67% 0.00 mm 343.61 W/m2
09:59 28.0 °C 21.0 °C 1016.9 hPa NNE 10 km/h 12 km/h 68% 0.00 mm 320.69 W/m2
10:04 29.0 °C 21.0 °C 1016.7 hPa East 6 km/h 8 km/h 67% 0.00 mm 331.67 W/m2
10:09 29.0 °C 21.0 °C 1016.7 hPa East 8 km/h 12 km/h 64% 0.00 mm 354.62 W/m2
10:14 29.0 °C 21.0 °C 1016.6 hPa ENE 14 km/h 16 km/h 64% 0.00 mm 286.09 W/m2
10:19 28.0 °C 22.0 °C 1016.4 hPa NNE 17 km/h 20 km/h 67% 0.00 mm 157.47 W/m2
10:24 28.0 °C 21.0 °C 1016.4 hPa NNE 14 km/h 16 km/h 68% 0.00 mm 338.33 W/m2
10:29 29.0 °C 21.0 °C 1016.0 hPa ESE 10 km/h 16 km/h 66% 0.00 mm 383.98 W/m2
10:34 29.0 °C 21.0 °C 1016.0 hPa North 6 km/h 8 km/h 64% 0.00 mm 382.27 W/m2
10:39 29.0 °C 21.0 °C 1016.0 hPa ESE 13 km/h 16 km/h 63% 0.00 mm 380.85 W/m2
10:44 29.0 °C 21.0 °C 1016.0 hPa SSE 8 km/h 16 km/h 63% 0.00 mm 403.22 W/m2
10:49 29.0 °C 21.0 °C 1016.0 hPa ENE 9 km/h 12 km/h 63% 0.00 mm 430.99 W/m2
10:54 29.0 °C 21.0 °C 1016.0 hPa ENE 9 km/h 12 km/h 63% 0.00 mm 433.58 W/m2
10:59 30.0 °C 21.0 °C 1016.0 hPa SE 9 km/h 12 km/h 62% 0.00 mm 447.99 W/m2
11:04 30.0 °C 21.0 °C 1016.0 hPa SE 12 km/h 16 km/h 62% 0.00 mm 452.30 W/m2
11:09 29.0 °C 21.0 °C 1015.8 hPa East 10 km/h 16 km/h 62% 0.00 mm 438.91 W/m2
11:14 30.0 °C 21.0 °C 1015.7 hPa NNE 9 km/h 12 km/h 62% 0.00 mm 453.40 W/m2
11:19 30.0 °C 21.0 °C 1015.7 hPa ENE 11 km/h 12 km/h 61% 0.00 mm 464.31 W/m2
11:24 31.0 °C 21.0 °C 1015.7 hPa ESE 8 km/h 12 km/h 60% 0.00 mm 482.61 W/m2
11:29 30.0 °C 21.0 °C 1015.7 hPa ESE 11 km/h 16 km/h 61% 0.00 mm 471.16 W/m2
11:34 30.0 °C 21.0 °C 1015.7 hPa NE 18 km/h 24 km/h 62% 0.00 mm 458.61 W/m2
11:39 29.0 °C 21.0 °C 1015.3 hPa ESE 10 km/h 16 km/h 62% 0.00 mm 279.85 W/m2
11:44 30.0 °C 22.0 °C 1015.3 hPa ENE 9 km/h 12 km/h 63% 0.00 mm 509.79 W/m2
11:49 30.0 °C 21.0 °C 1015.3 hPa ENE 10 km/h 12 km/h 61% 0.00 mm 526.31 W/m2
11:54 30.0 °C 21.0 °C 1015.3 hPa NNE 15 km/h 20 km/h 63% 0.00 mm 194.48 W/m2
11:59 29.0 °C 21.0 °C 1015.1 hPa NE 10 km/h 12 km/h 63% 0.00 mm 163.34 W/m2
12:04 29.0 °C 21.0 °C 1015.3 hPa NNE 8 km/h 12 km/h 63% 0.00 mm 151.92 W/m2
12:09 29.0 °C 21.0 °C 1015.1 hPa East 5 km/h 8 km/h 63% 0.00 mm 230.77 W/m2
12:14 29.0 °C 21.0 °C 1015.0 hPa East 12 km/h 16 km/h 63% 0.00 mm 446.38 W/m2
12:19 30.0 °C 21.0 °C 1015.0 hPa SE 10 km/h 12 km/h 62% 0.00 mm 289.83 W/m2
12:24 30.0 °C 21.0 °C 1015.0 hPa ENE 8 km/h 12 km/h 61% 0.00 mm 419.49 W/m2
12:29 30.0 °C 21.0 °C 1014.8 hPa NNE 10 km/h 12 km/h 62% 0.00 mm 428.07 W/m2
12:34 29.0 °C 21.0 °C 1014.6 hPa NE 9 km/h 12 km/h 62% 0.00 mm 430.28 W/m2
12:39 29.0 °C 21.0 °C 1014.6 hPa North 13 km/h 16 km/h 62% 0.00 mm 452.91 W/m2
12:44 29.0 °C 21.0 °C 1014.6 hPa NE 8 km/h 12 km/h 62% 0.00 mm 343.09 W/m2
12:49 29.0 °C 21.0 °C 1014.6 hPa SSW 5 km/h 8 km/h 61% 0.00 mm 182.10 W/m2
12:54 29.0 °C 21.0 °C 1014.3 hPa East 9 km/h 12 km/h 62% 0.00 mm 151.32 W/m2
12:59 29.0 °C 21.0 °C 1014.3 hPa SE 5 km/h 8 km/h 62% 0.00 mm 127.69 W/m2
13:04 29.0 °C 21.0 °C 1014.3 hPa NE 6 km/h 8 km/h 62% 0.00 mm 230.94 W/m2
13:09 29.0 °C 21.0 °C 1014.3 hPa NE 6 km/h 8 km/h 62% 0.00 mm 252.13 W/m2
13:14 29.0 °C 21.0 °C 1014.0 hPa NE 16 km/h 20 km/h 62% 0.00 mm 293.43 W/m2
13:19 29.0 °C 21.0 °C 1014.0 hPa NNE 15 km/h 20 km/h 63% 0.00 mm 262.65 W/m2
13:24 29.0 °C 21.0 °C 1014.0 hPa North 9 km/h 12 km/h 62% 0.00 mm 448.11 W/m2
13:29 29.0 °C 21.0 °C 1013.8 hPa NNE 15 km/h 20 km/h 62% 0.00 mm 419.31 W/m2
13:34 29.0 °C 21.0 °C 1013.8 hPa NNE 15 km/h 24 km/h 62% 0.00 mm 166.38 W/m2
13:39 29.0 °C 21.0 °C 1013.6 hPa East 6 km/h 8 km/h 62% 0.00 mm 145.57 W/m2
13:44 29.0 °C 21.0 °C 1013.6 hPa NE 10 km/h 12 km/h 61% 0.00 mm 168.60 W/m2
13:49 29.0 °C 21.0 °C 1013.6 hPa NE 4 km/h 8 km/h 62% 0.00 mm 400.35 W/m2
13:54 30.0 °C 21.0 °C 1013.6 hPa SE 6 km/h 8 km/h 61% 0.00 mm 440.04 W/m2
13:59 30.0 °C 21.0 °C 1013.3 hPa SE 8 km/h 12 km/h 58% 0.00 mm 455.16 W/m2
14:04 31.0 °C 21.0 °C 1013.3 hPa ESE 8 km/h 12 km/h 58% 0.00 mm 450.79 W/m2
14:09 30.0 °C 21.0 °C 1013.3 hPa ENE 15 km/h 16 km/h 60% 0.00 mm 158.30 W/m2
14:14 30.0 °C 21.0 °C 1013.3 hPa North 8 km/h 12 km/h 61% 0.00 mm 159.20 W/m2
14:19 30.0 °C 21.0 °C 1012.9 hPa ENE 4 km/h 8 km/h 60% 0.00 mm 163.75 W/m2
14:24 30.0 °C 21.0 °C 1012.9 hPa ESE 7 km/h 8 km/h 60% 0.00 mm 432.45 W/m2
14:29 31.0 °C 21.0 °C 1012.9 hPa NW 5 km/h 8 km/h 58% 0.00 mm 437.69 W/m2
14:34 31.0 °C 21.0 °C 1012.9 hPa NNE 14 km/h 16 km/h 57% 0.00 mm 446.25 W/m2
14:39 30.0 °C 21.0 °C 1012.7 hPa ENE 9 km/h 16 km/h 58% 0.00 mm 437.64 W/m2
14:44 30.0 °C 21.0 °C 1012.8 hPa NE 2 km/h 4 km/h 58% 0.00 mm 157.13 W/m2
14:49 30.0 °C 21.0 °C 1012.7 hPa North 10 km/h 12 km/h 59% 0.00 mm 113.29 W/m2
14:54 30.0 °C 21.0 °C 1012.8 hPa NNE 10 km/h 16 km/h 60% 0.00 mm 70.45 W/m2
14:59 30.0 °C 21.0 °C 1012.9 hPa NNE 13 km/h 16 km/h 61% 0.00 mm 61.72 W/m2
15:04 30.0 °C 21.0 °C 1012.8 hPa NE 6 km/h 8 km/h 61% 0.00 mm 69.14 W/m2
15:09 29.0 °C 21.0 °C 1012.8 hPa North 10 km/h 12 km/h 61% 0.00 mm 75.77 W/m2
15:14 29.0 °C 21.0 °C 1012.6 hPa NNW 7 km/h 8 km/h 61% 0.00 mm 92.46 W/m2
15:19 29.0 °C 21.0 °C 1012.6 hPa NE 5 km/h 8 km/h 61% 0.00 mm 101.12 W/m2
15:24 29.0 °C 21.0 °C 1012.6 hPa SSE 5 km/h 8 km/h 63% 0.00 mm 108.61 W/m2
15:29 29.0 °C 22.0 °C 1012.6 hPa SSE 6 km/h 12 km/h 66% 0.00 mm 106.76 W/m2
15:34 29.0 °C 22.0 °C 1012.6 hPa SW 5 km/h 8 km/h 66% 0.00 mm 96.55 W/m2
15:39 29.0 °C 21.0 °C 1012.6 hPa WSW 5 km/h 8 km/h 65% 0.00 mm 84.32 W/m2
15:44 29.0 °C 21.0 °C 1012.6 hPa East 3 km/h 4 km/h 65% 0.00 mm 88.93 W/m2
15:49 29.0 °C 21.0 °C 1012.6 hPa NNE 10 km/h 16 km/h 65% 0.00 mm 88.31 W/m2
15:54 28.0 °C 21.0 °C 1012.6 hPa NNE 15 km/h 16 km/h 64% 0.00 mm 66.56 W/m2
15:59 28.0 °C 21.0 °C 1012.6 hPa NNE 10 km/h 12 km/h 63% 0.00 mm 56.26 W/m2
16:04 28.0 °C 21.0 °C 1012.8 hPa NNE 15 km/h 20 km/h 63% 0.00 mm 46.83 W/m2
16:09 28.0 °C 21.0 °C 1012.8 hPa NNE 15 km/h 20 km/h 64% 0.00 mm 47.82 W/m2
16:14 28.0 °C 21.0 °C 1012.8 hPa NNE 12 km/h 12 km/h 64% 0.00 mm 53.25 W/m2
16:19 28.0 °C 21.0 °C 1012.9 hPa NNE 17 km/h 20 km/h 64% 0.00 mm 55.00 W/m2
16:24 28.0 °C 21.0 °C 1012.9 hPa NE 14 km/h 16 km/h 64% 0.00 mm 90.99 W/m2
16:29 28.0 °C 21.0 °C 1012.9 hPa NNE 15 km/h 16 km/h 64% 0.00 mm 206.72 W/m2
16:34 28.0 °C 21.0 °C 1012.9 hPa NE 13 km/h 20 km/h 63% 0.00 mm 196.10 W/m2
16:39 28.0 °C 21.0 °C 1012.9 hPa NE 11 km/h 16 km/h 63% 0.00 mm 148.02 W/m2
16:44 28.0 °C 21.0 °C 1012.9 hPa NE 12 km/h 16 km/h 64% 0.00 mm 71.53 W/m2
16:49 28.0 °C 21.0 °C 1012.9 hPa NNE 17 km/h 20 km/h 64% 0.00 mm 74.83 W/m2
16:54 28.0 °C 21.0 °C 1012.9 hPa NNW 13 km/h 16 km/h 64% 0.00 mm 51.99 W/m2
16:59 28.0 °C 21.0 °C 1013.3 hPa NNE 14 km/h 20 km/h 64% 0.00 mm 47.32 W/m2
17:04 28.0 °C 21.0 °C 1013.3 hPa NNE 28 km/h 32 km/h 64% 0.00 mm 42.29 W/m2
17:09 28.0 °C 20.0 °C 1013.3 hPa NE 15 km/h 20 km/h 65% 0.00 mm 37.98 W/m2
17:14 28.0 °C 21.0 °C 1013.3 hPa NE 11 km/h 12 km/h 65% 0.00 mm 37.91 W/m2
17:19 28.0 °C 20.0 °C 1013.3 hPa NE 10 km/h 20 km/h 66% 0.00 mm 34.21 W/m2
17:24 27.0 °C 21.0 °C 1013.7 hPa ENE 10 km/h 16 km/h 66% 0.00 mm 22.85 W/m2
17:29 27.0 °C 20.0 °C 1013.7 hPa ENE 6 km/h 12 km/h 66% 0.00 mm 18.39 W/m2
17:34 27.0 °C 20.0 °C 1013.7 hPa ENE 8 km/h 12 km/h 67% 0.00 mm 12.59 W/m2
17:39 27.0 °C 21.0 °C 1013.7 hPa East 8 km/h 12 km/h 67% 0.00 mm 9.98 W/m2
17:44 27.0 °C 20.0 °C 1013.7 hPa SE 7 km/h 12 km/h 67% 0.00 mm 7.37 W/m2
17:49 27.0 °C 20.0 °C 1013.7 hPa NE 6 km/h 8 km/h 67% 0.00 mm 4.28 W/m2
17:54 27.0 °C 20.0 °C 1013.7 hPa NNE 12 km/h 16 km/h 68% 0.00 mm 1.63 W/m2
17:59 27.0 °C 20.0 °C 1013.7 hPa NNE 11 km/h 12 km/h 68% 0.00 mm 0.00 W/m2
18:04 27.0 °C 20.0 °C 1013.9 hPa NNE 16 km/h 20 km/h 68% 0.00 mm 0.00 W/m2
18:09 26.0 °C 20.0 °C 1013.9 hPa NNE 7 km/h 12 km/h 68% 0.00 mm 0.00 W/m2
18:14 26.0 °C 20.0 °C 1014.0 hPa NE 8 km/h 12 km/h 69% 0.00 mm 0.00 W/m2
18:19 26.0 °C 20.0 °C 1014.0 hPa NE 8 km/h 12 km/h 69% 0.00 mm 0.00 W/m2
18:24 26.0 °C 20.0 °C 1014.0 hPa NE 10 km/h 12 km/h 69% 0.00 mm 0.00 W/m2
18:29 26.0 °C 20.0 °C 1014.0 hPa NE 13 km/h 16 km/h 69% 0.00 mm 0.00 W/m2
18:34 26.0 °C 20.0 °C 1014.0 hPa NNE 10 km/h 12 km/h 70% 0.00 mm 0.00 W/m2
18:39 26.0 °C 20.0 °C 1014.4 hPa ENE 7 km/h 12 km/h 70% 0.00 mm 0.00 W/m2
18:44 26.0 °C 20.0 °C 1014.4 hPa ENE 3 km/h 8 km/h 70% 0.00 mm 0.00 W/m2
18:49 26.0 °C 20.0 °C 1014.4 hPa ENE 10 km/h 16 km/h 70% 0.00 mm 0.00 W/m2
18:54 26.0 °C 20.0 °C 1014.4 hPa ENE 9 km/h 16 km/h 70% 0.00 mm 0.00 W/m2
18:59 26.0 °C 20.0 °C 1014.4 hPa ENE 7 km/h 8 km/h 70% 0.00 mm 0.00 W/m2
19:04 26.0 °C 20.0 °C 1014.4 hPa NE 8 km/h 12 km/h 70% 0.00 mm 0.00 W/m2
19:09 26.0 °C 20.0 °C 1014.4 hPa NE 9 km/h 12 km/h 70% 0.00 mm 0.00 W/m2
19:14 26.0 °C 20.0 °C 1014.4 hPa NE 6 km/h 12 km/h 70% 0.00 mm 0.00 W/m2
19:19 26.0 °C 20.0 °C 1014.4 hPa NE 5 km/h 8 km/h 71% 0.00 mm 0.00 W/m2
19:24 26.0 °C 20.0 °C 1014.7 hPa NNE 6 km/h 8 km/h 71% 0.00 mm 0.00 W/m2
19:29 26.0 °C 20.0 °C 1014.7 hPa NNE 8 km/h 8 km/h 71% 0.00 mm 0.00 W/m2
19:34 25.0 °C 20.0 °C 1014.7 hPa NE 8 km/h 12 km/h 71% 0.00 mm 0.00 W/m2
19:39 25.0 °C 20.0 °C 1014.7 hPa NNE 8 km/h 12 km/h 71% 0.00 mm 0.00 W/m2
19:44 25.0 °C 20.0 °C 1015.0 hPa NE 10 km/h 12 km/h 71% 0.00 mm 0.00 W/m2
19:49 25.0 °C 20.0 °C 1015.0 hPa ENE 5 km/h 8 km/h 71% 0.00 mm 0.00 W/m2
19:54 25.0 °C 20.0 °C 1015.0 hPa ESE 3 km/h 4 km/h 71% 0.00 mm 0.00 W/m2
19:59 25.0 °C 20.0 °C 1015.2 hPa NNE 3 km/h 4 km/h 71% 0.00 mm 0.00 W/m2
20:04 25.0 °C 20.0 °C 1015.4 hPa Calm     72% 0.00 mm 0.00 W/m2
20:09 25.0 °C 20.0 °C 1015.4 hPa ESE 1 km/h 4 km/h 72% 0.00 mm 0.00 W/m2
20:14 25.0 °C 20.0 °C 1015.4 hPa East 2 km/h 4 km/h 72% 0.00 mm 0.00 W/m2
20:19 25.0 °C 20.0 °C 1015.4 hPa ENE 1 km/h 4 km/h 72% 0.00 mm 0.00 W/m2
20:24 25.0 °C 20.0 °C 1015.4 hPa East 1 km/h 4 km/h 72% 0.00 mm 0.00 W/m2
20:29 25.0 °C 20.0 °C 1015.4 hPa SE 2 km/h 12 km/h 72% 0.00 mm 0.00 W/m2
20:34 25.0 °C 20.0 °C 1015.6 hPa ESE 1 km/h 4 km/h 73% 0.00 mm 0.00 W/m2
20:39 25.0 °C 20.0 °C 1015.4 hPa East 3 km/h 4 km/h 72% 0.00 mm 0.00 W/m2
20:44 25.0 °C 20.0 °C 1015.4 hPa Calm   4 km/h 72% 0.00 mm 0.00 W/m2
20:49 25.0 °C 20.0 °C 1015.4 hPa Calm     73% 0.00 mm 0.00 W/m2
20:54 25.0 °C 20.0 °C 1015.4 hPa Calm     73% 0.00 mm 0.00 W/m2
20:59 25.0 °C 20.0 °C 1015.4 hPa Calm     73% 0.00 mm 0.00 W/m2
21:04 25.0 °C 20.0 °C 1015.6 hPa Calm     73% 0.00 mm 0.00 W/m2
21:09 25.0 °C 19.0 °C 1015.6 hPa SSE 4 km/h 4 km/h 72% 0.00 mm 0.00 W/m2
21:14 25.0 °C 20.0 °C 1015.8 hPa SE 5 km/h 8 km/h 73% 0.00 mm 0.00 W/m2
21:19 25.0 °C 20.0 °C 1015.8 hPa ESE 6 km/h 8 km/h 73% 0.00 mm 0.00 W/m2
21:24 25.0 °C 20.0 °C 1015.7 hPa ESE 4 km/h 8 km/h 73% 0.00 mm 0.00 W/m2
21:29 25.0 °C 20.0 °C 1015.9 hPa East 4 km/h 4 km/h 73% 0.00 mm 0.00 W/m2
21:34 25.0 °C 20.0 °C 1015.7 hPa Calm     74% 0.00 mm 0.00 W/m2
21:39 25.0 °C 20.0 °C 1016.1 hPa SE 2 km/h 4 km/h 73% 0.00 mm 0.00 W/m2
21:44 25.0 °C 20.0 °C 1015.9 hPa ESE 5 km/h 8 km/h 73% 0.00 mm 0.00 W/m2
21:49 25.0 °C 20.0 °C 1016.1 hPa South 1 km/h 4 km/h 74% 0.00 mm 0.00 W/m2
21:54 25.0 °C 20.0 °C 1016.1 hPa East 1 km/h 4 km/h 74% 0.00 mm 0.00 W/m2
21:59 25.0 °C 20.0 °C 1016.0 hPa East 4 km/h 4 km/h 74% 0.00 mm 0.00 W/m2
22:04 25.0 °C 20.0 °C 1016.0 hPa SE 2 km/h 4 km/h 74% 0.00 mm 0.00 W/m2
22:09 25.0 °C 20.0 °C 1015.9 hPa Calm     74% 0.00 mm 0.00 W/m2
22:14 25.0 °C 20.0 °C 1015.8 hPa NW 4 km/h 4 km/h 75% 0.00 mm 0.00 W/m2
22:19 24.0 °C 20.0 °C 1015.8 hPa WNW 1 km/h 4 km/h 76% 0.00 mm 0.00 W/m2
22:24 24.0 °C 20.0 °C 1015.8 hPa Calm     76% 0.00 mm 0.00 W/m2
22:29 24.0 °C 20.0 °C 1015.9 hPa Calm     77% 0.00 mm 0.00 W/m2
22:34 24.0 °C 20.0 °C 1016.1 hPa Calm     77% 0.00 mm 0.00 W/m2
22:39 24.0 °C 20.0 °C 1015.9 hPa Calm     77% 0.00 mm 0.00 W/m2
22:44 24.0 °C 20.0 °C 1016.0 hPa Calm     77% 0.00 mm 0.00 W/m2
22:49 24.0 °C 20.0 °C 1016.0 hPa NW 4 km/h 4 km/h 77% 0.00 mm 0.00 W/m2
22:54 24.0 °C 20.0 °C 1016.1 hPa NNW 5 km/h 8 km/h 77% 0.00 mm 0.00 W/m2
22:59 24.0 °C 20.0 °C 1016.1 hPa NNW 5 km/h 8 km/h 77% 0.00 mm 0.00 W/m2
23:04 24.0 °C 20.0 °C 1016.1 hPa NNW 4 km/h 8 km/h 77% 0.00 mm 0.00 W/m2
23:09 24.0 °C 20.0 °C 1016.1 hPa North 1 km/h 4 km/h 78% 0.00 mm 0.00 W/m2
23:14 24.0 °C 20.0 °C 1016.1 hPa North 4 km/h 4 km/h 78% 0.00 mm 0.00 W/m2
23:19 24.0 °C 20.0 °C 1016.1 hPa NNW 5 km/h 8 km/h 78% 0.00 mm 0.00 W/m2
23:24 24.0 °C 20.0 °C 1016.1 hPa NNW 4 km/h 8 km/h 78% 0.00 mm 0.00 W/m2
23:29 24.0 °C 20.0 °C 1016.1 hPa NNW 5 km/h 8 km/h 78% 0.00 mm 0.00 W/m2
23:34 24.0 °C 20.0 °C 1016.1 hPa NNE 3 km/h 4 km/h 78% 0.00 mm 0.00 W/m2
23:39 24.0 °C 20.0 °C 1016.1 hPa NW 5 km/h 8 km/h 78% 0.00 mm 0.00 W/m2
23:44 24.0 °C 20.0 °C 1016.1 hPa NW 8 km/h 12 km/h 78% 0.00 mm 0.00 W/m2
23:49 24.0 °C 20.0 °C 1015.9 hPa NNW 7 km/h 8 km/h 79% 0.00 mm 0.00 W/m2
23:54 24.0 °C 20.0 °C 1016.1 hPa North 5 km/h 8 km/h 79% 0.00 mm 0.00 W/m2
23:59 24.0 °C 20.0 °C 1016.1 hPa North 5 km/h 8 km/h 79% 0.00 mm 0.00 W/m2
PIMOHWEATHER Philippines
Compliments of Weather Underground - 2 mb